Location: Cartignies
(50.0929°N, 3.8447°E)
Time: 14:35:24
(UTC+00:00)

USA 215 - Pass Details

Date: 12 January 2026
Orbit: 1098 x 1109 km, 123.0° (Epoch: 10 January)

Event Time Altitude Azimuth Distance (km) Brightness Sun altitude
Exits shadow 19:58:06 59° 288° (WNW) 1,257 3.6 -36.2°
Drops below altitude 10° 20:03:32 10° 256° (WSW) 2,958 6.1 -37.1°
Sets 20:06:00 0° 254° (WSW) 3,913 6.9 -37.5°
